sat.trackr.live / text

‹ back to catalog

STARLINK-37056

NORAD 68260 · 2026-054AE

PAYLOAD ACTIVE UNKNOWN

§ Identity

Operator
Country
US
Launch date
2026-03-17
Launch site
AFETR
Launch vehicle
Mass (kg)
RCS (m²)

Purposes: comms

External: N2YO · Heavens-Above · Gunter

§ Orbital elements

Epoch: 2026-09-19T23:07:45.693120Z

Period
93.85 min
Inclination
53.1585°
Eccentricity
0.0001104
Mean motion
15.34401093 rev/d
Perigee alt
461.9 km
Apogee alt
463.5 km
Semi-major
6,840.8 km
B*
4.7503e-4
RAAN
103.9934°
Arg perigee
103.7118°
Mean anomaly
256.4008°
Rev number
2,888

§ Raw data

STARLINK-370561 68260U 26054AE  26262.96372330  .00015708  00000+0  47503-3 0  99922 68260  53.1585 103.9934 0001104 103.7118 256.4008 15.34401093 28888

JSON: /api/v1/satellites/68260 · /tle

For live sub-satellite position, see the globe view (requires WebGL).

§ Visibility from observer

Set your observer location to see the next 7 days of passes ≥ 10°. The values pass through the URL so the page stays shareable.

No JS? Fill the form by hand. The geolocation button needs JavaScript.